TimeMST,TemperatureF,Dew PointF,Humidity,Sea Level PressureIn,VisibilityMPH,Wind Direction,Wind SpeedMPH,Gust SpeedMPH,PrecipitationIn,Events,Conditions,WindDirDegrees,DateUTC
12:55 AM,62.6,30.2,30,29.85,10.0,WSW,9.2,-,N/A,,Scattered Clouds,250,2012-10-17 07:55:00
1:56 AM,61.0,28.9,30,29.86,10.0,SW,9.2,-,N/A,,Clear,220,2012-10-17 08:56:00
2:56 AM,57.0,30.0,36,29.86,10.0,ESE,3.5,-,N/A,,Clear,120,2012-10-17 09:56:00
3:56 AM,60.1,30.0,32,29.87,10.0,Calm,Calm,-,N/A,,Clear,0,2012-10-17 10:56:00
4:56 AM,55.9,30.0,37,29.88,10.0,South,5.8,-,N/A,,Clear,170,2012-10-17 11:56:00
5:55 AM,55.4,28.4,36,29.91,10.0,NW,3.5,-,N/A,,Partly Cloudy,310,2012-10-17 12:55:00
6:55 AM,57.2,30.2,36,29.91,10.0,Calm,Calm,-,N/A,,Partly Cloudy,0,2012-10-17 13:55:00
7:55 AM,62.6,33.8,34,29.92,10.0,Calm,Calm,-,N/A,,Partly Cloudy,0,2012-10-17 14:55:00
8:55 AM,69.8,33.8,27,29.93,10.0,NE,3.5,-,N/A,,Partly Cloudy,50,2012-10-17 15:55:00
9:55 AM,73.4,32.0,22,29.93,10.0,NE,5.8,-,N/A,,Partly Cloudy,40,2012-10-17 16:55:00
10:55 AM,78.8,32.0,18,29.91,10.0,Calm,Calm,-,N/A,,Partly Cloudy,0,2012-10-17 17:55:00
11:55 AM,80.6,32.0,17,29.88,10.0,NNW,9.2,-,N/A,,Partly Cloudy,340,2012-10-17 18:55:00
12:55 PM,80.6,32.0,17,29.85,10.0,Variable,4.6,-,N/A,,Mostly Cloudy,0,2012-10-17 19:55:00
1:55 PM,80.6,28.4,15,29.83,10.0,WNW,6.9,-,N/A,,Mostly Cloudy,300,2012-10-17 20:55:00
2:55 PM,82.4,33.8,17,29.84,10.0,WNW,11.5,-,N/A,,Mostly Cloudy,290,2012-10-17 21:55:00
3:55 PM,82.4,33.8,17,29.84,10.0,West,8.1,-,N/A,,Mostly Cloudy,270,2012-10-17 22:55:00
4:55 PM,78.8,33.8,20,29.86,10.0,NW,13.8,-,N/A,,Mostly Cloudy,320,2012-10-17 23:55:00
5:55 PM,75.2,33.8,22,29.90,10.0,West,9.2,-,N/A,,Mostly Cloudy,280,2012-10-18 00:55:00
6:55 PM,71.6,35.6,27,29.92,10.0,West,10.4,-,N/A,,Mostly Cloudy,270,2012-10-18 01:55:00
7:55 PM,68.0,48.2,49,29.95,10.0,West,6.9,-,N/A,,Mostly Cloudy,280,2012-10-18 02:55:00
8:55 PM,69.8,53.6,56,29.95,10.0,West,9.2,-,N/A,,Mostly Cloudy,260,2012-10-18 03:55:00
9:55 PM,68.0,53.6,60,29.95,10.0,West,9.2,-,N/A,,Mostly Cloudy,260,2012-10-18 04:55:00
10:55 PM,66.2,53.6,64,29.96,10.0,West,8.1,-,N/A,,Mostly Cloudy,280,2012-10-18 05:55:00
11:55 PM,66.2,53.6,64,29.96,10.0,West,10.4,-,N/A,,Mostly Cloudy,260,2012-10-18 06:55:00